Orbital Elements at Epoch 2459200.5 (2020-Dec-17.0) TDB
Reference: JPL 27 (heliocentric ecliptic J2000)
Element | Value | Uncertainty (1-sigma) | Units |
e | .1004506482649688 | 3.9818e-08 | |
a | 2.684143533111176 | 1.1316e-08 | au |
q | 2.414519575173935 | 1.0616e-07 | au |
i | 3.040852693218155 | 3.37e-06 | deg |
node | 302.924638813666 | 8.3691e-05 | deg |
peri | 234.1572942522008 | 8.5685e-05 | deg |
M | 219.0627513859628 | 2.0634e-05 | deg |
tp | 2459829.325751768461 (2022-Sep-06.82575177) | 9.4083e-05 | TDB |
period | 1606.22740164731 4.40 | 1.0158e-05 2.781e-08 | d yr |
n | .2241276668738139 | 1.4174e-09 | deg/d |
Q | 2.953767491048418 | 1.2453e-08 | au |
|
| | Orbit Determination Parameters
Additional Information
|